(376304) = 2010 EC156 = 2011 FU149

Discovered at WISE on 2010-03-13 by WISE.

Orbit

Orbit type: Main Belt

Note: WebGL enabled browser required.

epoch2023-09-13.0
epoch JD2460200.5
perihelion date2021-12-21.50208
perihelion JD2459570.00208
argument of perihelion (°)290.84549
ascending node (°)254.88835
inclination (°)20.45536
eccentricity0.0673848
perihelion distance (AU)2.8595491
Tisserand w.r.t. Jupiter3.1
ΔV w.r.t. Earth (km/sec)12.3
semimajor axis (AU)3.0661619
mean anomaly (°)115.74304
mean daily motion (°/day)0.18357400
aphelion distance (AU)3.273
period (years)5.37
P-vector [x]-0.93810663
P-vector [y]0.02415654
P-vector [z]-0.34550313
Q-vector [x]0.07824530
Q-vector [y]-0.95699276
Q-vector [z]-0.27936093
absolute magnitude15.5
phase slope0.15
uncertainty0
referenceMPEC 2023-O91
observations used260
oppositions13
arc length (days)8996
first opposition used1998
last opposition used2023
residual rms (arc-secs)0.77
perturbers coarse indicatorM-v
perturbers precise indicator003Ek
first observation date used1998-12-07.0
last observation date used2023-07-25.0
computer nameMPCLINUX
JD of orbit computation2456966.916042
perihelion JD uncertainty (days)3.3891E-04
argument of perihelion uncertainty (°)7.1131E-05
ascending node uncertainty (°)4.1522E-05
inclination uncertainty (°)1.0229E-05
eccentricity uncertainty 1.8608E-07
perihelion distance uncertainty (AU)5.3124E-07
Minimum Orbit Intersection Distances (in AU)
for orbit epoch: 2460200.5, reference: E2023-O91
Mercury2.45341
Venus2.19284
Earth1.91321
Mars1.3891
Jupiter1.89214
Saturn5.93837
Uranus15.7905
Neptune26.7116

Observations

266 total observations over interval: 1998 12 07.79991 – 2023 07 25.95903
These data are available for download (format description).

Date (UT) J2000 RA J2000 Dec Magn Location Ref
1998 12 07.79991 04 57 16.44 +22 26 37.2   104 – San Marcello Pistoiese MPS 382320
1998 12 07.80417 04 57 16.19 +22 26 36.1   104 – San Marcello Pistoiese MPS 382320
1998 12 07.80840 04 57 15.92 +22 26 35.3 19.8 V 104 – San Marcello Pistoiese MPS 382320
2003 12 01.06604 02 36 03.05 +27 25 16.5 21.4 V 691 – Steward Observatory, Kitt Peak-Spacewatch MPS 382320
2003 12 01.09302 02 36 02.03 +27 25 02.1 21.1 V 691 – Steward Observatory, Kitt Peak-Spacewatch MPS 382320
2003 12 01.12024 02 36 01.02 +27 24 47.6 21.3 V 691 – Steward Observatory, Kitt Peak-Spacewatch MPS 382320
2008 09 30.26901 00 56 54.52 +32 00 33.1 20.2 V G96 – Mt. Lemmon Survey MPS 382320
2008 09 30.27340 00 56 54.27 +32 00 32.5 20.6 V G96 – Mt. Lemmon Survey MPS 382320
2008 09 30.27780 00 56 54.09 +32 00 30.9 20.1 V G96 – Mt. Lemmon Survey MPS 382320
2008 09 30.28215 00 56 53.88 +32 00 29.8 20.1 V G96 – Mt. Lemmon Survey MPS 382320
2010 03 12.895869 05 51 37.027 +11 02 04.09   C51 – WISE MPS 904227
2010 03 13.22669 05 51 48.15 +11 02 10.9   C51 – WISE MPS 335291
2010 03 13.226692 05 51 48.14 +11 02 11.4   C51 – WISE MPS 335291
2010 03 13.292909 05 51 50.28 +11 02 09.8   C51 – WISE MPS 335291
2010 03 13.359124 05 51 52.56 +11 02 10.3   C51 – WISE MPS 335291
2010 03 13.425212 05 51 54.76 +11 02 11.7   C51 – WISE MPS 335291
2010 03 13.491428 05 51 57.02 +11 02 12.0   C51 – WISE MPS 335291
2010 03 13.557516 05 51 59.24 +11 02 12.0   C51 – WISE MPS 335291
2010 03 13.623731 05 52 01.47 +11 02 13.3   C51 – WISE MPS 335291
2010 03 13.756036 05 52 06.01 +11 02 14.7   C51 – WISE MPS 335291
2010 03 14.020644 05 52 15.14 +11 02 18.5   C51 – WISE MPS 335291
2011 03 29.63713 11 36 54.25 -28 55 09.0 19.1 V E12 – Siding Spring Survey MPS 378873
2011 03 29.67197 11 36 52.66 -28 54 52.4 19.1 V E12 – Siding Spring Survey MPS 378873
2011 04 05.59309 11 32 05.24 -27 57 06.8 19.2 V E12 – Siding Spring Survey MPS 378873
2011 04 05.61299 11 32 04.45 -27 56 55.5 19.6 V E12 – Siding Spring Survey MPS 378873
2011 04 05.63278 11 32 03.76 -27 56 46.1 18.8 V E12 – Siding Spring Survey MPS 378873
2011 04 11.35123 11 28 41.175 -27 02 49.89 20.0 g F51 – Pan-STARRS 1, Haleakala MPS 378873
2011 04 11.36256 11 28 40.784 -27 02 43.05 20.1 g F51 – Pan-STARRS 1, Haleakala MPS 378873
2011 04 11.37531 11 28 40.354 -27 02 35.64 19.5 i F51 – Pan-STARRS 1, Haleakala MPS 378873
2011 04 25.53001 11 23 16.72 -24 36 39.4 19.7 V E12 – Siding Spring Survey MPS 380147
2011 04 25.54655 11 23 16.47 -24 36 28.6 19.6 V E12 – Siding Spring Survey MPS 380147
2011 04 25.56302 11 23 16.22 -24 36 18.2 19.6 V E12 – Siding Spring Survey MPS 380147
2011 04 25.57954 11 23 16.08 -24 36 06.3 19.3 V E12 – Siding Spring Survey MPS 380147
2013 09 06.21278 23 02 15.20 +25 03 42.1 20.9 V 703 – Catalina Sky Survey MPS 476353
2013 09 06.21944 23 02 14.77 +25 03 40.0 20.3 V 703 – Catalina Sky Survey MPS 476353
2013 09 06.22618 23 02 14.46 +25 03 38.9 19.9 V 703 – Catalina Sky Survey MPS 476353
2013 09 06.23288 23 02 14.26 +25 03 36.0 20.9 V 703 – Catalina Sky Survey MPS 476353
2013 09 09.33624 22 59 50.870 +24 51 49.89 20.3 g F51 – Pan-STARRS 1, Haleakala MPS 476353
2013 09 09.34771 22 59 50.330 +24 51 47.02 20.1 g F51 – Pan-STARRS 1, Haleakala MPS 476353
2013 10 10.27130 22 40 09.055 +21 18 52.17 20.1 r F51 – Pan-STARRS 1, Haleakala MPS 480222
2013 10 10.28268 22 40 08.760 +21 18 46.26 20.1 r F51 – Pan-STARRS 1, Haleakala MPS 480222
2013 10 21.22135 22 36 56.185 +19 43 59.85 20.1 i F51 – Pan-STARRS 1, Haleakala MPS 483604
2013 10 21.23383 22 36 56.034 +19 43 53.30 20.1 i F51 – Pan-STARRS 1, Haleakala MPS 483604
2014 10 25.45833 04 40 25.29 +29 17 48.7 20.6 r G45 – Space Surveillance Telescope, Atom Site MPS 558476
2014 10 25.48060 04 40 24.66 +29 17 43.0 20.8 r G45 – Space Surveillance Telescope, Atom Site MPS 558476
2014 10 25.49172 04 40 24.34 +29 17 40.3 20.9 r G45 – Space Surveillance Telescope, Atom Site MPS 558476
2014 10 25.50284 04 40 24.00 +29 17 37.6 20.9 r G45 – Space Surveillance Telescope, Atom Site MPS 558476
2014 11 04.21778 04 34 48.06 +28 34 58.5 19.6 V G96 – Mt. Lemmon Survey MPS 544807
2014 11 04.22240 04 34 47.94 +28 34 57.4 19.7 V G96 – Mt. Lemmon Survey MPS 544807
2014 11 04.22703 04 34 47.79 +28 34 56.6 19.2 V G96 – Mt. Lemmon Survey MPS 544807
2014 11 16.26881 04 25 25.42 +27 26 34.7   691 – Steward Observatory, Kitt Peak-Spacewatch MPS 547562
2014 11 16.28921 04 25 24.33 +27 26 26.7   691 – Steward Observatory, Kitt Peak-Spacewatch MPS 547562
2014 11 16.30960 04 25 23.27 +27 26 19.3   691 – Steward Observatory, Kitt Peak-Spacewatch MPS 547562
2014 11 26.32532 04 16 24.55 +26 17 36.7 19.0 V 703 – Catalina Sky Survey MPS 549561
2014 11 26.34787 04 16 23.42 +26 17 28.3 19.7 V 703 – Catalina Sky Survey MPS 549561
2014 11 26.35782 04 16 22.91 +26 17 24.1 20.7 V 703 – Catalina Sky Survey MPS 549561
2014 11 27.34805 04 15 28.723 +26 10 09.14 19.9 w F51 – Pan-STARRS 1, Haleakala MPS 551493
2014 11 27.36195 04 15 27.947 +26 10 03.08 20.0 w F51 – Pan-STARRS 1, Haleakala MPS 551493
2014 11 27.37576 04 15 27.162 +26 09 57.01 20.0 w F51 – Pan-STARRS 1, Haleakala MPS 551493
2014 11 27.38963 04 15 26.383 +26 09 50.97 20.0 w F51 – Pan-STARRS 1, Haleakala MPS 551493
2014 11 29.19145 04 13 47.71 +25 56 27.1 20.0 V 691 – Steward Observatory, Kitt Peak-Spacewatch MPS 551493
2014 11 29.21184 04 13 46.56 +25 56 18.3 20.2 V 691 – Steward Observatory, Kitt Peak-Spacewatch MPS 551493
2014 11 29.23224 04 13 45.42 +25 56 08.8 20.3 V 691 – Steward Observatory, Kitt Peak-Spacewatch MPS 551494
2014 12 01.31666 04 11 51.954 +25 40 25.88 19.9 i F51 – Pan-STARRS 1, Haleakala MPS 551494
2014 12 01.32862 04 11 51.296 +25 40 20.39 19.8 i F51 – Pan-STARRS 1, Haleakala MPS 551494
2014 12 01.34057 04 11 50.630 +25 40 15.04 19.9 i F51 – Pan-STARRS 1, Haleakala MPS 551494
2014 12 01.35255 04 11 49.949 +25 40 09.79 19.9 i F51 – Pan-STARRS 1, Haleakala MPS 551494
2014 12 12.13523 04 02 32.85 +24 16 23.9 20.0 V G96 – Mt. Lemmon Survey MPS 553016
2014 12 12.14281 04 02 32.47 +24 16 20.7 19.9 V G96 – Mt. Lemmon Survey MPS 553016
2014 12 12.14909 04 02 32.19 +24 16 17.6 20.4 V G96 – Mt. Lemmon Survey MPS 553016
2014 12 12.15537 04 02 31.86 +24 16 14.4 19.7 V G96 – Mt. Lemmon Survey MPS 553016
2015 01 11.33849 03 47 13.964 +20 45 48.75 20.9 w F51 – Pan-STARRS 1, Haleakala MPS 562446
2015 01 11.35129 03 47 13.821 +20 45 44.39 20.9 w F51 – Pan-STARRS 1, Haleakala MPS 562446
2015 01 11.36408 03 47 13.683 +20 45 40.06 20.9 w F51 – Pan-STARRS 1, Haleakala MPS 562446
2015 01 11.37684 03 47 13.543 +20 45 35.82 20.9 w F51 – Pan-STARRS 1, Haleakala MPS 562447
2015 01 14.32886 03 46 51.757 +20 29 41.65 20.7 w F51 – Pan-STARRS 1, Haleakala MPS 562447
2015 01 14.33817 03 46 51.689 +20 29 38.68 20.8 w F51 – Pan-STARRS 1, Haleakala MPS 562447
2015 01 14.34168 03 46 51.674 +20 29 37.57 20.8 w F51 – Pan-STARRS 1, Haleakala MPS 562447
2015 01 14.35093 03 46 51.615 +20 29 34.63 20.8 w F51 – Pan-STARRS 1, Haleakala MPS 562447
2015 01 14.35444 03 46 51.584 +20 29 33.57 20.8 w F51 – Pan-STARRS 1, Haleakala MPS 562447
2015 01 14.36369 03 46 51.528 +20 29 30.58 20.9 w F51 – Pan-STARRS 1, Haleakala MPS 562447
2015 01 14.36721 03 46 51.508 +20 29 29.38 20.8 w F51 – Pan-STARRS 1, Haleakala MPS 562447
2016 01 03.65945 09 54 18.460 -13 07 14.60 20.0 z F51 – Pan-STARRS 1, Haleakala MPS 668167
2016 01 03.66415 09 54 18.382 -13 07 17.24 19.9 z F51 – Pan-STARRS 1, Haleakala MPS 668167
2016 01 15.49952 09 49 25.409 -14 34 43.20 20.0 w F51 – Pan-STARRS 1, Haleakala MPS 673858
2016 01 15.51117 09 49 25.010 -14 34 47.58 19.9 w F51 – Pan-STARRS 1, Haleakala MPS 673858
2016 01 15.52288 09 49 24.616 -14 34 51.98 20.0 w F51 – Pan-STARRS 1, Haleakala MPS 673858
2016 01 15.53456 09 49 24.219 -14 34 56.34 20.0 w F51 – Pan-STARRS 1, Haleakala MPS 673858
2016 01 17.47723 09 48 19.064 -14 46 35.07 19.9 w F51 – Pan-STARRS 1, Haleakala MPS 673858
2016 01 17.47853 09 48 19.014 -14 46 35.63 20.0 w F51 – Pan-STARRS 1, Haleakala MPS 673858
2016 01 17.48854 09 48 18.655 -14 46 39.03 19.9 w F51 – Pan-STARRS 1, Haleakala MPS 673858
2016 01 17.48983 09 48 18.605 -14 46 39.51 20.0 w F51 – Pan-STARRS 1, Haleakala MPS 673858
2016 01 17.49984 09 48 18.244 -14 46 42.95 19.9 w F51 – Pan-STARRS 1, Haleakala MPS 673858
